Hourly Data Report for August 06, 2004

SHERBROOKE A
QUEBEC

45°26'00.000" N
71°41'00.000" W
241.40 m
7028124
71610
YSC

Download Data

Hourly Data (August 2004)
Hourly Data Report for August 6, 2004
TIME
LST
Temp Definition
°C
Dew Point Definition
°C
Rel Hum Definition
%
Precip. Amount Definition
mm

Wind Dir Definition
10's deg

Wind Spd Definition
km/h
Visibility Definition
km
Stn Press Definition
kPa
Hmdx Definition


Wind Chill Definition


Weather Definition


00:00 10.0 9.2 95   27 6 15.0 98.30      
01:00 9.8 9.0 95   26 6 15.0 98.30      
02:00 8.1 7.5 96   27 4 8.0 98.30      
03:00 9.7 9.0 95   24 7 15.0 98.28      
04:00 9.8 9.0 95   25 9 15.0 98.26      
05:00 9.5 8.4 93   26 15 15.0 98.29      
06:00 9.9 8.6 92   25 7 15.0 98.32      
07:00 11.1 9.3 89   27 9 24.1 98.34     Mainly Clear
08:00 12.5 9.0 79   26 13 24.1 98.42     Mainly Clear
09:00 14.3 9.8 74   26 13 24.1 98.38     Mainly Clear
10:00 15.2 7.9 62   33 11 24.1 98.38     Mainly Clear
11:00 16.3 8.7 61   27 11 24.1 98.38     Mostly Cloudy
12:00 15.8 9.1 64   35 7 24.1 98.36     Mostly Cloudy
13:00 15.9 8.8 63   34 6 24.1 98.35     Mostly Cloudy
14:00 17.2 9.3 60   27 7 24.1 98.34     Mostly Cloudy
15:00 16.9 9.3 61   33 13 24.1 98.29     Mostly Cloudy
16:00 16.0 9.4 65   33 7 24.1 98.30     Mostly Cloudy
17:00 15.9 9.1 64   34 11 15.0 98.32      
18:00 15.1 9.8 71   30 6 15.0 98.33      
19:00 13.9 10.0 77   30 6 15.0 98.38      
20:00 13.5 10.2 80   30 6 15.0 98.40      
21:00 12.7 10.6 87   31 4 15.0 98.41      
22:00 12.3 10.5 89     0 15.0 98.38      
23:00 11.6 10.5 93     0 15.0 98.37      

Notes on Data Quality.

Legend

  • E = Estimated
  • M = Missing
  • NA = Not Available*
  • [empty] = Indicates an unobserved value
Date modified: